Stündliche Wetter Cedar Park

Heute, 23 Oktober, Freitag

Zeit Temperatur Niederschläge Wind Luftdruck Luftfeuchtigkeit
00:00 +22°C° 0 mm 4 m/S 735 mmHg 91%
01:00 +22°C° 0 mm 3 m/S 735 mmHg 93%
02:00 +22°C° 0 mm 3 m/S 735 mmHg 95%
03:00 +23°C° 0 mm 2 m/S 735 mmHg 95%
04:00 +23°C° 0 mm 2 m/S 735 mmHg 95%
05:00 +22°C° 0 mm 1 m/S 735 mmHg 95%
06:00 +23°C° 0 mm 1 m/S 736 mmHg 91%
07:00 +24°C° 0 mm 1 m/S 736 mmHg 88%
08:00 +25°C° 0 mm 1 m/S 737 mmHg 84%
09:00 +25°C° 0 mm 1 m/S 737 mmHg 79%
10:00 +26°C° 0 mm 2 m/S 738 mmHg 75%
11:00 +27°C° 0 mm 2 m/S 738 mmHg 70%
12:00 +27°C° 0.1 mm 3 m/S 738 mmHg 69%
13:00 +27°C° 0.1 mm 4 m/S 738 mmHg 67%
14:00 +27°C° 0.1 mm 5 m/S 737 mmHg 65%
15:00 +23°C° 0 mm 6 m/S 738 mmHg 65%
16:00 +20°C° 0 mm 6 m/S 738 mmHg 64%
17:00 +16°C° 0 mm 7 m/S 738 mmHg 64%
18:00 +15°C° 0 mm 7 m/S 739 mmHg 63%
19:00 +14°C° 0 mm 7 m/S 739 mmHg 61%
20:00 +14°C° 0 mm 6 m/S 740 mmHg 60%
21:00 +13°C° 0 mm 6 m/S 740 mmHg 59%
22:00 +13°C° 0 mm 6 m/S 740 mmHg 59%
23:00 +13°C° 0 mm 5 m/S 740 mmHg 58%

Morgen, 24 Oktober, Samstag

Zeit Temperatur Niederschläge Wind Luftdruck Luftfeuchtigkeit
00:00 +13°C° 0 mm 5 m/S 740 mmHg 58%
01:00 +13°C° 0 mm 5 m/S 740 mmHg 58%
02:00 +13°C° 0 mm 5 m/S 740 mmHg 57%
03:00 +12°C° 0 mm 4 m/S 740 mmHg 57%
04:00 +12°C° 0 mm 4 m/S 740 mmHg 57%
05:00 +12°C° 0 mm 4 m/S 740 mmHg 57%
06:00 +12°C° 0 mm 4 m/S 740 mmHg 57%
07:00 +13°C° 0 mm 4 m/S 740 mmHg 57%
08:00 +13°C° 0 mm 4 m/S 740 mmHg 57%
09:00 +14°C° 0 mm 3 m/S 740 mmHg 55%
10:00 +17°C° 0 mm 3 m/S 739 mmHg 54%
11:00 +19°C° 0 mm 3 m/S 739 mmHg 52%
12:00 +20°C° 0 mm 2 m/S 738 mmHg 51%
13:00 +22°C° 0 mm 1 m/S 737 mmHg 51%
14:00 +24°C° 0 mm 1 m/S 736 mmHg 50%
15:00 +23°C° 0 mm 1 m/S 736 mmHg 54%
16:00 +21°C° 0 mm 2 m/S 735 mmHg 58%
17:00 +19°C° 0 mm 2 m/S 735 mmHg 63%
18:00 +19°C° 0 mm 2 m/S 735 mmHg 64%
19:00 +18°C° 0 mm 2 m/S 735 mmHg 66%
20:00 +18°C° 0 mm 2 m/S 735 mmHg 68%
21:00 +17°C° 0 mm 2 m/S 735 mmHg 72%
22:00 +17°C° 0 mm 3 m/S 735 mmHg 75%
23:00 +17°C° 0 mm 3 m/S 735 mmHg 78%

übermorgen, 25 Oktober, Sonntag

Zeit Temperatur Niederschläge Wind Luftdruck Luftfeuchtigkeit
00:00 +17°C° 0 mm 3 m/S 735 mmHg 80%
01:00 +17°C° 0 mm 3 m/S 735 mmHg 82%
02:00 +17°C° 0 mm 3 m/S 734 mmHg 84%
03:00 +17°C° 0 mm 3 m/S 734 mmHg 85%
04:00 +17°C° 0 mm 3 m/S 734 mmHg 86%
05:00 +17°C° 0 mm 3 m/S 734 mmHg 87%
06:00 +19°C° 0 mm 4 m/S 735 mmHg 84%
07:00 +20°C° 0 mm 5 m/S 735 mmHg 81%
08:00 +22°C° 0 mm 6 m/S 735 mmHg 78%
09:00 +23°C° 0 mm 6 m/S 735 mmHg 78%
10:00 +23°C° 0 mm 6 m/S 735 mmHg 77%
11:00 +24°C° 0 mm 6 m/S 735 mmHg 77%
12:00 +26°C° 0 mm 6 m/S 734 mmHg 74%
13:00 +26°C° 0 mm 6 m/S 733 mmHg 72%
14:00 +27°C° 0 mm 6 m/S 732 mmHg 70%
15:00 +26°C° 0 mm 5 m/S 732 mmHg 72%
16:00 +26°C° 0 mm 4 m/S 732 mmHg 75%
17:00 +25°C° 0 mm 4 m/S 732 mmHg 77%
18:00 +23°C° 0 mm 4 m/S 732 mmHg 82%
19:00 +23°C° 0 mm 4 m/S 733 mmHg 86%
20:00 +22°C° 0 mm 4 m/S 733 mmHg 91%
21:00 +22°C° 0 mm 5 m/S 733 mmHg 90%
22:00 +22°C° 0 mm 5 m/S 733 mmHg 90%
23:00 +22°C° 0 mm 5 m/S 733 mmHg 89%

, 26 Oktober, Montag

Zeit Temperatur Niederschläge Wind Luftdruck Luftfeuchtigkeit
00:00 +22°C° 0 mm 5 m/S 733 mmHg 89%
01:00 +22°C° 0 mm 4 m/S 733 mmHg 89%
02:00 +22°C° 0 mm 4 m/S 733 mmHg 89%
03:00 +22°C° 0.1 mm 3 m/S 734 mmHg 89%
04:00 +23°C° 0.1 mm 2 m/S 735 mmHg 89%
05:00 +23°C° 0.1 mm 1 m/S 735 mmHg 89%
06:00 +21°C° 0.1 mm 2 m/S 736 mmHg 88%
07:00 +21°C° 0.1 mm 3 m/S 736 mmHg 87%
08:00 +20°C° 0.1 mm 4 m/S 737 mmHg 87%
09:00 +19°C° 0 mm 4 m/S 737 mmHg 82%
10:00 +17°C° 0 mm 5 m/S 737 mmHg 78%
11:00 +15°C° 0 mm 6 m/S 737 mmHg 73%
12:00 +15°C° 0 mm 6 m/S 736 mmHg 72%
13:00 +15°C° 0 mm 6 m/S 736 mmHg 71%
14:00 +15°C° 0 mm 6 m/S 735 mmHg 71%
15:00 +14°C° 0 mm 6 m/S 736 mmHg 72%
16:00 +13°C° 0 mm 6 m/S 736 mmHg 73%
17:00 +13°C° 0 mm 6 m/S 736 mmHg 75%
18:00 +11°C° 0 mm 6 m/S 736 mmHg 76%
19:00 +11°C° 0 mm 6 m/S 736 mmHg 77%
20:00 +10°C° 0 mm 5 m/S 736 mmHg 78%
21:00 +10°C° 0 mm 5 m/S 736 mmHg 78%
22:00 +11°C° 0 mm 4 m/S 736 mmHg 77%
23:00 +11°C° 0 mm 4 m/S 736 mmHg 77%

26 Oktober, Montag

Zeit Temperatur Niederschläge Wind Luftdruck Luftfeuchtigkeit
00:00 +22°C° 0 mm 5 m/S 733 mmHg 89%
01:00 +22°C° 0 mm 4 m/S 733 mmHg 89%
02:00 +22°C° 0 mm 4 m/S 733 mmHg 89%
03:00 +22°C° 0.1 mm 3 m/S 734 mmHg 89%
04:00 +23°C° 0.1 mm 2 m/S 735 mmHg 89%
05:00 +23°C° 0.1 mm 1 m/S 735 mmHg 89%
06:00 +21°C° 0.1 mm 2 m/S 736 mmHg 88%
07:00 +21°C° 0.1 mm 3 m/S 736 mmHg 87%
08:00 +20°C° 0.1 mm 4 m/S 737 mmHg 87%
09:00 +19°C° 0 mm 4 m/S 737 mmHg 82%
10:00 +17°C° 0 mm 5 m/S 737 mmHg 78%
11:00 +15°C° 0 mm 6 m/S 737 mmHg 73%
12:00 +15°C° 0 mm 6 m/S 736 mmHg 72%
13:00 +15°C° 0 mm 6 m/S 736 mmHg 71%
14:00 +15°C° 0 mm 6 m/S 735 mmHg 71%
15:00 +14°C° 0 mm 6 m/S 736 mmHg 72%
16:00 +13°C° 0 mm 6 m/S 736 mmHg 73%
17:00 +13°C° 0 mm 6 m/S 736 mmHg 75%
18:00 +11°C° 0 mm 6 m/S 736 mmHg 76%
19:00 +11°C° 0 mm 6 m/S 736 mmHg 77%
20:00 +10°C° 0 mm 5 m/S 736 mmHg 78%
21:00 +10°C° 0 mm 5 m/S 736 mmHg 78%
22:00 +11°C° 0 mm 4 m/S 736 mmHg 77%
23:00 +11°C° 0 mm 4 m/S 736 mmHg 77%

27 Oktober, Dienstag

Zeit Temperatur Niederschläge Wind Luftdruck Luftfeuchtigkeit
00:00 +12°C° 0 mm 4 m/S 736 mmHg 77%
01:00 +12°C° 0 mm 4 m/S 735 mmHg 77%
02:00 +12°C° 0 mm 4 m/S 735 mmHg 76%
03:00 +12°C° 0 mm 4 m/S 735 mmHg 77%
04:00 +12°C° 0 mm 4 m/S 735 mmHg 77%
05:00 +12°C° 0 mm 3 m/S 735 mmHg 78%
06:00 +12°C° 0 mm 3 m/S 735 mmHg 78%
07:00 +13°C° 0 mm 3 m/S 735 mmHg 78%
08:00 +14°C° 0 mm 2 m/S 735 mmHg 78%
09:00 +14°C° 0 mm 3 m/S 735 mmHg 77%
10:00 +16°C° 0 mm 3 m/S 735 mmHg 76%
11:00 +17°C° 0 mm 3 m/S 735 mmHg 75%
12:00 +15°C° 0 mm 5 m/S 734 mmHg 76%
13:00 +14°C° 0 mm 6 m/S 734 mmHg 77%
14:00 +12°C° 0 mm 7 m/S 734 mmHg 78%
15:00 +11°C° 0.1 mm 7 m/S 734 mmHg 79%
16:00 +9°C° 0.1 mm 7 m/S 734 mmHg 81%
17:00 +6°C° 0.1 mm 8 m/S 735 mmHg 82%
18:00 +6°C° 0.2 mm 8 m/S 735 mmHg 82%
19:00 +5°C° 0.2 mm 8 m/S 736 mmHg 82%
20:00 +4°C° 0.2 mm 8 m/S 736 mmHg 82%
21:00 +4°C° 0.7 mm 8 m/S 737 mmHg 83%
22:00 +2°C° 0.7 mm 8 m/S 737 mmHg 85%
23:00 +2°C° 0.7 mm 8 m/S 737 mmHg 86%

28 Oktober, Mittwoch

Zeit Temperatur Niederschläge Wind Luftdruck Luftfeuchtigkeit
00:00 +2°C° 1.3 mm 8 m/S 737 mmHg 86%
01:00 +2°C° 1.3 mm 8 m/S 737 mmHg 86%
02:00 +2°C° 1.3 mm 8 m/S 736 mmHg 86%
03:00 +2°C° 1.5 mm 8 m/S 737 mmHg 86%
04:00 +2°C° 1.5 mm 9 m/S 737 mmHg 86%
05:00 +2°C° 1.5 mm 9 m/S 737 mmHg 86%
06:00 +2°C° 0.6 mm 9 m/S 737 mmHg 86%
07:00 +2°C° 0.6 mm 9 m/S 738 mmHg 86%
08:00 +4°C° 0.6 mm 8 m/S 738 mmHg 86%
09:00 +4°C° 0.4 mm 8 m/S 738 mmHg 87%
10:00 +4°C° 0.4 mm 8 m/S 738 mmHg 87%
11:00 +4°C° 0.4 mm 7 m/S 738 mmHg 87%
12:00 +4°C° 0.1 mm 8 m/S 738 mmHg 86%
13:00 +2°C° 0.1 mm 8 m/S 738 mmHg 85%
14:00 +1°C° 0.1 mm 8 m/S 737 mmHg 84%
15:00 +1°C° 0 mm 8 m/S 738 mmHg 83%
16:00 +1°C° 0 mm 8 m/S 738 mmHg 82%
17:00 +2°C° 0 mm 7 m/S 738 mmHg 81%
18:00 +2°C° 0 mm 7 m/S 738 mmHg 81%
19:00 +2°C° 0 mm 7 m/S 738 mmHg 81%
20:00 +1°C° 0 mm 6 m/S 738 mmHg 81%
21:00 +1°C° 0 mm 6 m/S 738 mmHg 81%
22:00 +1°C° 0 mm 6 m/S 738 mmHg 82%
23:00 +1°C° 0 mm 6 m/S 738 mmHg 82%
Mehr zeigen